Tracking 17828 objects as of 31-July-2016
HD Live streaming from Space Station
objects crossing your sky now

ATLAS CENTAUR R/B

Track ATLAS CENTAUR R/B now!


NORAD ID: 10976
Int'l Code: 1978-068B
Perigee: 648.9 km
Apogee: 36,207.3 km
Inclination: 21.7 °
Period: 647.8 minutes
Semi major axis: 24799 km
RCS: 16.8333 m2 (large)
Launch date: June 29, 1978
Source: United States (US)
Launch site: AIR FORCE EASTERN TEST RANGE (AFETR)

Note: This is a ROCKET BODY
Your satellite tracking list
Your tracking list is empty





NASA's NSSDC Master Catalog

Two Line Element Set (TLE):
1 10976U 78068B   16211.80431870 -.00000050  00000-0  17832-3 0  9994
2 10976  21.7206 314.4439 7169283  59.7600 247.1611  2.22304690309084
Source of the keplerian elements: AFSPC

N2YO: 904